Home   Weather   Jülich   Past weeks

Flag for Germany Past Weather in Jülich, North Rhine-Westphalia, Germany — Yesterday and Last 2 Weeks

Now
64 °F

Overcast.


Feels Like: 64 °F
Forecast: 45 / 53 °F
Wind: 8 mph from Southeast

Location: Noervenich

Current Time: Apr 30, 2017 at 5:14:15 pm

Latest Report: Apr 30, 2017 at 4:00 pm


Visibility: 19 mi

Pressure: 29.75 "Hg

Humidity: 29%

Dew Point: 31 °F

Location of JülichLocation

Past Weather in Jülich — Graph

°F

Jülich Temperature Yesterday

Maximum temperature yesterday: 55 °F (at 4:00 pm)
Minimum temperature yesterday: 35 °F (at 7:00 am)
Average temperature yesterday: 46 °F

High & Low Weather Summary for the Past Weeks

 TemperatureHumidityPressure
High64 °F (Apr 30, 4:00 pm)94% (Apr 17, 6:00 am)30.66 "Hg (Apr 17, 6:00 am)
Low26 °F (Apr 20, 6:00 am)29% (Apr 30, 4:00 pm)29.71 "Hg (Apr 25, 3:00 am)
Average44 °F64%30.16 "Hg
* Reported Apr 15 4:00 pm — Apr 30 4:00 pm, Jülich, Weather by CustomWeather, © 2017

Note: Actual official high and low records may vary slightly from our data, if they occured in-between our weather recording intervals... More about our weather records

Advertising

Jülich Weather History for the Previous 24 Hours

Scroll right to see more
 ConditionsComfort  
Time TempWeatherWind HumidityBarometerVisibility
4:00 pm
Sun, Apr 30
64 °FOvercast.8 mph29%29.75 "Hg19 mi
3:00 pm63 °FPartly sunny.8 mph30%29.79 "Hg19 mi
1:00 pm61 °FScattered clouds.8 mph36%29.84 "Hg19 mi
12:00 pm59 °FScattered clouds.8 mph37%29.86 "Hg19 mi
10:00 am51 °FScattered clouds.6 mph48%29.92 "Hg19 mi
9:00 am47 °FScattered clouds.6 mph53%29.94 "Hg19 mi
7:00 am40 °FSunny.3 mph65%29.97 "Hg19 mi
6:00 am38 °FClear.2 mph68%29.98 "Hg19 mi
4:00 am39 °FClear.3 mph67%30.00 "Hg19 mi
3:00 am40 °FClear.2 mph66%30.01 "Hg19 mi
1:00 am43 °FClear.3 mph60%30.02 "Hg25 mi
12:00 am45 °FClear.2 mph57%30.02 "Hg25 mi
10:00 pm
Sat, Apr 29
46 °FPassing clouds.2 mph61%30.03 "Hg25 mi
9:00 pm50 °FPassing clouds.2 mph47%30.03 "Hg25 mi
7:00 pm54 °FPassing clouds.3 mph41%30.03 "Hg25 mi
6:00 pm54 °FPassing clouds.2 mph42%30.04 "Hg25 mi
Weather by CustomWeather, © 2017

See weather overviewHow to use our weather pages